date,time,DOY,Ta_1_1_1,RH_1_1_1,LWin_1_1_1,LWout_1_1_1,SWin_1_1_1,SWout_1_1_1,PPFD_1_1_1,SWC_1_1_1,Ts_1_1_1
[yyyy-mm-dd],[HH:MM],[ddd.ddd],[K],[%],[W+1m-2],[W+1m-2],[W+1m-2],[W+1m-2],[µmol+1m-2s-1],[m+3m-3],[K]
2013-05-23,00:30,143.020,276.32233333333340,93.451666666666654,-3.2699999999999987,-9.3757142857142863,4.43333333333333426E-002,-0.43300000000000005,2.66666666666666701E-003,-9999.0,273.15999999999991
2013-05-23,01:00,143.041,275.96799999999996,90.314333333333337,-3.1470000000000007,-9.9700000000000006,0.23066666666666671,-0.33866666666666667,2.00000000000000004E-003,-9999.0,273.15999999999991
2013-05-23,01:30,143.062,275.76133333333331,88.380333333333326,-3.0169999999999999,-9999.0,0.36799999999999999,-0.22066666666666671,0.0000000000000000,-9999.0,273.15999999999991
2013-05-23,02:00,143.083,275.63399999999996,86.722333333333324,-3.1250000000000004,-9999.0,0.37100000000000005,-0.30166666666666675,0.0000000000000000,-9999.0,273.15999999999991
2013-05-23,02:30,143.104,275.41000000000003,86.520000000000024,-3.5350000000000006,-9999.0,0.22966666666666671,-0.87233333333333352,1.66666666666666677E-003,-9999.0,273.15999999999991
2013-05-23,03:00,143.124,275.24166666666673,86.570999999999998,-3.5213333333333323,-9999.0,2.80000000000000041E-002,-0.79166666666666674,0.0000000000000000,-9999.0,273.15999999999991
2013-05-23,03:30,143.145,275.03766666666672,88.204999999999984,-3.5413333333333332,-9999.0,-0.12666666666666665,-0.63199999999999990,0.0000000000000000,-9999.0,273.15999999999991
2013-05-23,04:00,143.166,274.62033333333341,91.267000000000010,-3.7086666666666659,-9999.0,-0.14300000000000004,-1.1166666666666667,0.19333333333333333,-9999.0,273.15999999999991
2013-05-23,04:30,143.187,274.20033333333339,93.851333333333329,-3.8276666666666666,-9999.0,0.31033333333333335,1.1890000000000001,7.0073333333333334,-9999.0,273.15999999999991
2013-05-23,05:00,143.208,274.20500000000004,93.528666666666652,-3.3609999999999993,-9999.0,1.5436666666666667,13.756666666666664,29.883666666666670,-9999.0,273.15999999999991
2013-05-23,05:30,143.229,274.19066666666669,90.952666666666630,-3.1166666666666671,-9999.0,3.7103333333333333,33.253000000000000,66.835999999999999,-9999.0,273.15999999999991
2013-05-23,06:00,143.249,274.00133333333332,88.618666666666684,-2.9053333333333327,-9999.0,6.6086666666666645,57.487333333333339,114.12666666666665,-9999.0,273.15999999999991
2013-05-23,06:30,143.270,273.70333333333343,85.308999999999997,-2.4440000000000004,-9999.0,12.112000000000000,100.29933333333335,194.35366666666670,-9999.0,273.15999999999991
2013-05-23,07:00,143.291,273.69200000000006,84.185333333333347,-2.2460000000000004,-9999.0,17.802666666666667,143.06866666666667,274.64533333333333,-9999.0,273.15999999999991
2013-05-23,07:30,143.312,273.62166666666667,80.781000000000006,-1.9183333333333339,-9999.0,24.994333333333337,202.45499999999998,388.20200000000011,-9999.0,273.15999999999991
2013-05-23,08:00,143.333,273.83400000000000,78.830333333333328,-1.3933333333333333,-9999.0,36.286333333333346,290.37700000000007,552.70366666666678,-9999.0,273.15999999999991
2013-05-23,08:30,143.354,273.61233333333337,82.060666666666663,-1.2543333333333335,-9999.0,33.458333333333350,268.66633333333334,523.46433333333323,-9999.0,273.15999999999991
2013-05-23,09:00,143.374,273.69433333333330,80.071666666666673,-0.93333333333333357,-9999.0,44.224000000000004,352.15899999999999,679.81499999999994,-9999.0,273.15999999999991
2013-05-23,09:30,143.395,273.93466666666671,76.819999999999993,1.2560000000000000,-9999.0,77.413999999999987,602.78566666666666,1158.5306666666665,-9999.0,273.15999999999991
2013-05-23,10:00,143.416,273.95466666666664,82.301999999999978,-6.59999999999999337E-002,-9999.0,56.367333333333335,440.52666666666681,856.79899999999986,-9999.0,273.15999999999991
2013-05-23,10:30,143.437,274.54333333333329,75.141333333333321,2.9490000000000003,-9999.0,94.086333333333343,730.00166666666667,1401.3363333333332,-9999.0,273.15999999999991
2013-05-23,11:00,143.458,274.92366666666675,75.281333333333336,3.1949999999999998,-9999.0,95.650666666666652,746.96166666666647,1439.6826666666668,-9999.0,273.15999999999991
2013-05-23,11:30,143.479,275.86600000000004,71.307999999999993,4.8273333333333346,-9999.0,111.49266666666664,878.65333333333342,1708.0850000000000,-9999.0,273.15999999999991
2013-05-23,12:00,143.499,276.03866666666670,70.880666666666656,5.0253333333333323,-9999.0,111.27566666666669,890.90966666666679,1751.0183333333330,-9999.0,273.15999999999991
2013-05-23,12:30,143.520,276.45733333333339,68.788333333333341,6.2413333333333325,-9999.0,116.57699999999998,958.95766666666668,1882.0696666666668,-9999.0,273.15999999999991
2013-05-23,13:00,143.541,277.35800000000006,65.697666666666677,6.5476666666666681,-9999.0,116.49666666666664,963.82800000000020,1904.3643333333339,-9999.0,273.15999999999991
2013-05-23,13:30,143.562,277.87000000000000,62.538333333333327,6.1866666666666674,-9999.0,113.41366666666667,931.01133333333348,1836.0830000000001,-9999.0,273.15999999999991
2013-05-23,14:00,143.583,278.32466666666664,60.871000000000002,4.9016666666666664,-9999.0,109.18100000000001,886.33933333333323,1744.7296666666664,-9999.0,273.15999999999991
2013-05-23,14:30,143.604,278.76733333333340,59.024999999999999,4.2516666666666669,-9999.0,104.03433333333332,832.01999999999987,1638.7206666666666,-9999.0,273.15999999999991
2013-05-23,15:00,143.624,279.35866666666669,53.823666666666668,2.3683333333333336,-9999.0,97.521000000000001,769.11299999999983,1508.5556666666669,-9999.0,273.15999999999991
2013-05-23,15:30,143.645,279.49366666666663,50.999666666666670,1.1659999999999997,-9999.0,91.250333333333330,698.30399999999997,1360.2589999999996,-9999.0,273.15999999999991
2013-05-23,16:00,143.666,279.67700000000002,48.821333333333328,0.15333333333333338,-9999.0,83.994666666666660,618.69200000000012,1197.9473333333328,-9999.0,273.15999999999991
2013-05-23,16:30,143.687,280.10333333333330,47.572333333333340,-2.6349999999999993,-9999.0,73.889666666666670,532.06766666666681,1025.2183333333335,-9999.0,273.15999999999991
2013-05-23,17:00,143.708,280.16733333333337,46.696333333333335,-4.1393333333333331,-9999.0,63.815333333333321,440.67566666666664,842.74033333333318,-9999.0,273.15999999999991
2013-05-23,17:30,143.729,280.45566666666667,46.351000000000006,-6.3463333333333320,-9999.0,53.649000000000001,348.44200000000001,657.89633333333336,-9999.0,273.15999999999991
2013-05-23,18:00,143.749,280.54333333333335,45.974333333333327,-8.3643333333333327,-9999.0,43.052666666666674,254.83000000000004,475.39466666666664,-9999.0,273.15999999999991
2013-05-23,18:30,143.770,280.40200000000004,45.004000000000005,-8.6270000000000007,-9999.0,32.199666666666666,166.89199999999997,305.15000000000003,-9999.0,273.15999999999991
2013-05-23,19:00,143.791,280.07866666666666,46.310333333333332,-9.3116666666666674,-9999.0,20.460333333333338,86.902666666666676,157.92266666666666,-9999.0,273.15999999999991
2013-05-23,19:30,143.812,279.59866666666670,49.153000000000013,-9999.0,-9999.0,8.5436666666666667,25.158666666666665,50.169000000000011,-9999.0,273.15999999999991
2013-05-23,20:00,143.833,278.82633333333337,52.615333333333339,-9999.0,-9999.0,0.98966666666666669,-2.8433333333333328,5.0326666666666693,-9999.0,273.15999999999991
2013-05-23,20:30,143.854,278.22866666666670,54.411333333333324,-9999.0,-9999.0,0.81133333333333335,-5.0993333333333331,9.03333333333332933E-002,-9999.0,273.15999999999991
2013-05-23,21:00,143.874,277.81000000000006,55.903333333333336,-9999.0,-9999.0,0.58833333333333349,-5.1010000000000018,0.0000000000000000,-9999.0,273.15999999999991
2013-05-23,21:30,143.895,277.51333333333338,58.497000000000000,-9999.0,-9999.0,0.48500000000000004,-5.2133333333333338,0.0000000000000000,-9999.0,273.15999999999991
2013-05-23,22:00,143.916,277.52700000000004,59.531999999999996,-9999.0,-9999.0,0.37566666666666670,-5.1966666666666672,3.33333333333333322E-004,-9999.0,273.15999999999991
2013-05-23,22:30,143.937,277.45600000000002,60.024333333333331,-9999.0,-9999.0,0.34399999999999997,-4.9116666666666662,5.00000000000000097E-003,-9999.0,273.15999999999991
2013-05-23,23:00,143.958,277.39366666666672,60.210333333333345,-9999.0,-9999.0,6.26666666666666622E-002,-5.0783333333333340,3.66666666666666660E-003,-9999.0,273.15999999999991
2013-05-23,23:30,143.979,277.36233333333331,60.545000000000002,-9999.0,-9999.0,1.50000000000000099E-002,-4.9999999999999991,0.0000000000000000,-9999.0,273.15999999999991
2013-05-24,00:00,144.000,277.42799999999994,58.794333333333334,-9999.0,-9999.0,1.2450000000000003,-4.5373333333333328,0.0000000000000000,-9999.0,273.15999999999991
